Regional Weather Roundup
Issued by NWS

Home | Current Version | Previous Version | Graphics & Text | Print | Product List | Glossary On
Versions: 1 2 3 4 5 6 7 8 9 10 11 12 13 14 15 16 17 18 19 20 21 22 23 24 25 26 27 28 29 30 31 32 33 34 35 36 37 38 39 40 41 42 43 44 45 46 47 48 49 50
000
ASUS45 KABQ 201401
RWRNM
WEATHER ROUNDUP FOR NEW MEXICO
NATIONAL WEATHER SERVICE ALBUQUERQUE NM
700 AM MST SAT DEC 20 2014

NOTE: "FAIR" MEANS FEW OR NO CLOUDS BELOW 12,000 FEET AGL WITH NO
       SIGNIFICANT WEATHER OR OBSTRUCTIONS TO VISION.

      THIS PRODUCT IS RELEASED AS TWO VERSIONS.  ONE VERSION NEAR
      THE TOP OF THE HOUR CONTAINING PRELIMINARY DATA FROM ALBUQUERQUE
      AND OTHER STATIONS.  A FINAL VERSION WITH ADDITIONAL DATA IS
      ISSUED ABOUT 10 MINUTES AFTER THE HOUR.

NMZ501-503-504-510>518-201500-
NORTHWEST PLATEAU/NORTHCENTRAL MOUNTAINS

CITY           SKY/WX    TMP DP  RH WIND       PRES   REMARKS
FARMINGTON     CLOUDY    28  25  88 E6        30.18S WCI  22
SANTA FE       PTCLDY    22  15  75 N15       30.09F WCI   9
TAOS           MOCLDY    12   9  85 N6        30.15F WCI   3

$$
NMZ402-403-502-505>509-201500-
WESTCENTRAL MOUNTAINS/SOUTHWEST MOUNTAINS

CITY           SKY/WX    TMP DP  RH WIND       PRES   REMARKS
GALLUP         MOCLDY    23  19  85 E7        30.18S FOG     WCI  15
GRANTS         MOCLDY    19  18  95 N6        30.20R WCI  11
SILVER CITY    PTCLDY    30  27  86 NW10      30.17R WCI  21

$$
NMZ407-409-411-412-201500-
SOUTHERN DESERTS

CITY           SKY/WX    TMP DP  RH WIND       PRES   REMARKS
DEMING         CLEAR     27  24  89 E3        30.16R
HOLLOMAN AFB   PTCLDY    28  23  81 N7        30.13F WCI  21
ALAMOGORDO     PTCLDY    27  25  93 N3        30.14F
T OR C         PTCLDY    30  21  69 NW5       30.15S WCI  25

$$
NMZ519>523-201500-
CENTRAL VALLEYS/CENTRAL HIGHLANDS

CITY           SKY/WX    TMP DP  RH WIND       PRES   REMARKS
ALBUQUERQUE    MOCLDY    26  21  81 S5        30.16S WCI  20
DOUBLE EAGLE   PTCLDY    27  21  80 CALM      30.15S
CLINES CORNERS PTCLDY    23  17  78 NW18      30.04R WCI   9
BELEN          FAIR      21  19  93 NW6       30.16S WCI  13
SOCORRO        NOT AVBL

$$
NMZ524>526-539-540-201500-
SOUTHCENTRAL MOUNTAINS

CITY           SKY/WX    TMP DP  RH WIND       PRES   REMARKS
RUIDOSO        PTCLDY    30  18  59 NW12      30.11F WCI  21

$$
NMZ527>531-201500-
NORTHEAST HIGHLANDS/NORTHEAST PLAINS

CITY           SKY/WX    TMP DP  RH WIND       PRES   REMARKS
LAS VEGAS      PTCLDY    21   9  59 N9        30.05S WCI  11
RATON          PTCLDY    16  13  88 NE9       30.06R WCI   4
CLAYTON        PTCLDY    28  21  75 W7        30.04S WCI  21

$$
NMZ532>537-201500-
EASTCENTRAL PLAINS

CITY           SKY/WX    TMP DP  RH WIND       PRES   REMARKS
TUCUMCARI      FOG       27  25  92 N7        30.08R VSB 1/4 WCI  19
CANNON AFB     MOCLDY    22  20  95 SW6       30.08S WCI  14
CLOVIS AIRPORT MOCLDY    21  19  93 S3        30.08S

$$
NMZ028-029-538-201500-
SOUTHEAST PLAINS

CITY           SKY/WX    TMP DP  RH WIND       PRES   REMARKS
ROSWELL        PTCLDY    26  19  74 CALM      30.12R
ARTESIA        PTCLDY    27  23  86 N3        30.15R
CARLSBAD       PTCLDY    29  25  85 N3        30.14R
HOBBS          FOG       36  36 100 SE5       30.14R VSB 1/4 WCI  32


$$


USA.gov is the U.S. government's official web portal to all federal, state and local government web resources and services.